START_TIME,STEP,MOV.,AL01,t_acc.,AL02,t_acc.,E37,t_acc.,H21,t_acc.
1979-07-18 12:00:34.220 ,0,0,0.,24.0,0.,24.0,0.,24.0,0.,24.0
1979-07-18 12:00:58.220 ,1,1,0.,24.0,0.,24.0,0.,24.0,0.,24.0
1979-07-18 12:01:22.220 ,1,0,1.,24.0,0.,24.0,0.,24.0,0.,24.0
1979-07-18 12:01:46.220 ,2,1,0.,24.0,0.,24.0,0.,24.0,0.,24.0
1979-07-18 12:02:10.220 ,2,0,0.,24.0,0.,24.0,0.,24.0,0.,24.0
1979-07-18 12:02:34.220 ,3,1,1.,24.0,0.,24.0,0.,24.0,0.,24.0
1979-07-18 12:02:58.220 ,3,0,1.,24.0,0.,24.0,0.,24.0,0.,24.0
1979-07-18 12:03:22.220 ,4,1,0.,24.0,0.,24.0,0.,24.0,0.,24.0
1979-07-18 12:03:46.220 ,4,0,0.,24.0,0.,24.0,0.,24.0,0.,24.0
1979-07-18 12:04:10.220 ,5,1,1.,24.0,0.,24.0,0.,24.0,0.,24.0
1979-07-18 12:04:34.220 ,5,0,0.,24.0,0.,24.0,0.,24.0,0.,24.0
1979-07-18 12:04:58.220 ,6,1,0.,24.0,0.,24.0,0.,24.0,0.,24.0
1979-07-18 12:05:22.220 ,6,0,0.,24.0,0.,24.0,0.,24.0,0.,24.0
1979-07-18 12:05:46.220 ,7,1,6.,24.0,0.,24.0,1.,24.0,0.,24.0
1979-07-18 12:06:10.220 ,7,0,36.,24.0,0.,24.0,0.,24.0,0.,24.0
1979-07-18 12:06:34.220 ,7,1,25.,24.0,0.,24.0,0.,24.0,0.,24.0
1979-07-18 12:06:58.220 ,7,0,32.,24.0,0.,24.0,0.,24.0,0.,24.0
1979-07-18 12:07:22.220 ,6,1,20.,24.0,0.,24.0,0.,24.0,0.,24.0
1979-07-18 12:07:46.220 ,6,0,0.,24.0,0.,24.0,0.,24.0,0.,24.0
1979-07-18 12:13:46.220 ,0,0,0.,24.0,0.,24.0,0.,24.0,0.,24.0
1979-07-18 12:14:10.220 ,0,0,0.,24.0,0.,24.0,0.,24.0,0.,24.0
1979-07-18 12:14:34.220 ,2,1,0.,24.0,0.,24.0,0.,24.0,0.,24.0
1979-07-18 12:14:58.220 ,2,0,1.,24.0,0.,24.0,0.,24.0,0.,24.0
1979-07-18 12:15:22.220 ,3,1,0.,24.0,0.,24.0,0.,24.0,0.,24.0
1979-07-18 12:15:46.220 ,3,0,1.,24.0,0.,24.0,0.,24.0,0.,24.0
1979-07-18 12:16:58.220 ,0,0,0.,24.0,0.,24.0,2.,24.0,0.,24.0
1979-07-18 12:17:22.220 ,0,0,0.,24.0,0.,24.0,0.,24.0,0.,24.0
1979-07-18 12:17:46.220 ,6,1,0.,24.0,0.,24.0,0.,24.0,0.,24.0
1979-07-18 12:18:10.220 ,6,0,1.,24.0,0.,24.0,0.,24.0,0.,24.0
1979-07-18 12:18:34.220 ,7,0,13.,24.0,0.,24.0,0.,24.0,0.,24.0
1979-07-18 12:18:58.220 ,7,0,28.,24.0,0.,24.0,0.,24.0,0.,24.0
1979-07-18 12:19:22.220 ,5,1,14.,24.0,0.,24.0,0.,24.0,0.,24.0
1979-07-18 12:19:46.220 ,1,1,0.,24.0,0.,24.0,0.,24.0,0.,24.0
1979-07-18 12:20:10.220 ,2,1,0.,24.0,0.,24.0,0.,24.0,0.,24.0
1979-07-18 12:20:34.220 ,6,1,0.,24.0,0.,24.0,0.,24.0,0.,24.0
1979-07-18 12:20:58.220 ,5,1,18.,24.0,0.,24.0,0.,24.0,0.,24.0
1979-07-18 12:21:22.220 ,1,1,1.,24.0,0.,24.0,0.,24.0,0.,24.0
1979-07-18 12:21:46.220 ,2,1,0.,24.0,1.,24.0,0.,24.0,0.,24.0
1979-07-18 12:22:10.220 ,6,1,0.,24.0,0.,24.0,1.,24.0,0.,24.0
1979-07-18 12:22:34.220 ,5,1,7.,24.0,0.,24.0,0.,24.0,0.,24.0
1979-07-18 12:22:58.220 ,1,1,0.,24.0,0.,24.0,0.,24.0,0.,24.0
1979-07-18 12:23:22.220 ,2,1,0.,24.0,0.,24.0,0.,24.0,0.,24.0
1979-07-18 12:23:46.220 ,6,1,0.,24.0,0.,24.0,0.,24.0,0.,24.0
1979-07-18 12:24:10.220 ,5,1,23.,24.0,0.,24.0,0.,24.0,0.,24.0
1979-07-18 12:24:34.220 ,1,1,0.,24.0,0.,24.0,0.,24.0,0.,24.0
1979-07-18 12:24:58.220 ,2,1,0.,24.0,0.,24.0,0.,24.0,0.,24.0
1979-07-18 12:25:22.220 ,6,1,0.,24.0,0.,24.0,0.,24.0,0.,24.0
1979-07-18 12:25:46.220 ,5,1,15.,24.0,1.,24.0,0.,24.0,0.,24.0
1979-07-18 12:26:10.220 ,1,1,0.,24.0,0.,24.0,0.,24.0,0.,24.0
1979-07-18 12:26:34.220 ,2,1,0.,24.0,0.,24.0,0.,24.0,0.,24.0
1979-07-18 12:26:58.220 ,6,1,0.,24.0,1.,24.0,0.,24.0,0.,24.0
1979-07-18 12:27:22.220 ,5,1,21.,24.0,0.,24.0,0.,24.0,0.,24.0
1979-07-18 12:27:46.220 ,1,1,1.,24.0,0.,24.0,1.,24.0,0.,24.0
1979-07-18 12:28:10.220 ,2,1,0.,24.0,0.,24.0,1.,24.0,0.,24.0
1979-07-18 12:28:34.220 ,6,1,0.,24.0,0.,24.0,0.,24.0,0.,24.0
1979-07-18 12:28:58.220 ,5,1,8.,24.0,0.,24.0,0.,24.0,0.,24.0
1979-07-18 12:29:22.220 ,1,1,0.,24.0,0.,24.0,0.,24.0,0.,24.0
1979-07-18 12:29:46.220 ,0,0,1.,24.0,0.,24.0,0.,24.0,0.,24.0
1979-07-18 12:30:10.220 ,0,0,0.,24.0,0.,24.0,0.,24.0,0.,24.0
1979-07-18 12:30:34.220 ,5,1,12.,24.0,0.,24.0,0.,24.0,0.,24.0
1979-07-18 12:30:58.220 ,5,0,1.,24.0,0.,24.0,0.,24.0,0.,24.0
1979-07-18 12:31:22.220 ,4,1,0.,24.0,1.,24.0,0.,24.0,0.,24.0
1979-07-18 12:31:46.220 ,4,0,2.,24.0,0.,24.0,0.,24.0,0.,24.0
1979-07-18 12:32:10.220 ,3,1,1.,24.0,0.,24.0,1.,24.0,0.,24.0
1979-07-18 12:32:34.220 ,3,0,0.,24.0,1.,24.0,0.,24.0,0.,24.0
1979-07-18 12:32:58.220 ,2,1,1.,24.0,0.,24.0,0.,24.0,0.,24.0
1979-07-18 12:33:22.220 ,2,0,0.,24.0,0.,24.0,0.,24.0,0.,24.0
1979-07-18 12:33:46.220 ,1,1,0.,24.0,1.,24.0,0.,24.0,0.,24.0
1979-07-18 12:34:10.220 ,1,0,0.,24.0,0.,24.0,0.,24.0,0.,24.0
1979-07-18 12:34:34.220 ,0,1,0.,24.0,0.,24.0,0.,24.0,0.,24.0
1979-07-18 12:34:58.220 ,0,0,1.,24.0,0.,24.0,0.,24.0,0.,24.0
1979-07-18 12:35:22.220 ,0,1,0.,24.0,0.,24.0,0.,24.0,0.,24.0
1979-07-18 12:35:46.220 ,0,0,1.,24.0,1.,24.0,0.,24.0,0.,24.0
1979-07-18 12:36:58.220 ,0,0,0.,24.0,0.,24.0,0.,24.0,0.,24.0
1979-07-18 12:37:22.220 ,0,0,0.,24.0,0.,24.0,0.,24.0,0.,24.0
1979-07-18 12:37:46.220 ,3,1,1.,24.0,0.,24.0,0.,24.0,0.,24.0
1979-07-18 12:38:10.220 ,3,0,0.,24.0,0.,24.0,0.,24.0,0.,24.0
1979-07-18 12:38:34.220 ,4,1,1.,24.0,0.,24.0,0.,24.0,0.,24.0
1979-07-18 12:38:58.220 ,4,0,0.,24.0,0.,24.0,0.,24.0,0.,24.0
1979-07-18 12:39:22.220 ,5,1,0.,24.0,0.,24.0,0.,24.0,0.,24.0
1979-07-18 12:39:46.220 ,5,0,0.,24.0,1.,24.0,0.,24.0,0.,24.0
1979-07-18 12:40:10.220 ,6,1,0.,24.0,1.,24.0,0.,24.0,0.,24.0
1979-07-18 12:40:34.220 ,6,0,0.,24.0,0.,24.0,0.,24.0,0.,24.0
1979-07-18 12:40:58.220 ,7,1,5.,24.0,0.,24.0,0.,24.0,0.,24.0
1979-07-18 12:41:22.220 ,7,0,34.,24.0,0.,24.0,0.,24.0,0.,24.0
1979-07-18 12:41:46.220 ,7,1,45.,24.0,0.,24.0,0.,24.0,0.,24.0
1979-07-18 12:42:10.220 ,7,0,35.,24.0,0.,24.0,0.,24.0,0.,24.0
1979-07-18 12:42:34.220 ,6,1,30.,24.0,1.,24.0,0.,24.0,0.,24.0
1979-07-18 12:42:58.220 ,6,0,1.,24.0,0.,24.0,0.,24.0,0.,24.0
1979-07-18 12:44:10.220 ,0,0,1.,24.0,0.,24.0,0.,24.0,0.,24.0
1979-07-18 12:44:34.220 ,0,0,0.,24.0,0.,24.0,0.,24.0,0.,24.0
1979-07-18 12:44:58.220 ,3,1,0.,24.0,0.,24.0,0.,24.0,0.,24.0
1979-07-18 12:45:22.220 ,3,0,0.,24.0,0.,24.0,0.,24.0,0.,24.0
1979-07-18 12:45:46.220 ,2,1,0.,24.0,0.,24.0,1.,24.0,0.,24.0
1979-07-18 12:46:10.220 ,2,0,0.,24.0,0.,24.0,0.,24.0,0.,24.0
1979-07-18 12:46:34.220 ,1,1,0.,24.0,1.,24.0,0.,24.0,0.,24.0
1979-07-18 12:46:58.220 ,1,0,0.,24.0,0.,24.0,0.,24.0,0.,24.0
1979-07-18 12:47:22.220 ,0,1,1.,24.0,0.,24.0,0.,24.0,0.,24.0
1979-07-18 12:47:46.220 ,0,0,0.,24.0,1.,24.0,0.,24.0,0.,24.0
1979-07-18 12:48:10.220 ,0,1,0.,24.0,2.,24.0,0.,24.0,0.,24.0
1979-07-18 12:48:34.220 ,0,0,1.,24.0,0.,24.0,0.,24.0,0.,24.0
1979-07-18 12:48:58.220 ,1,1,0.,24.0,0.,24.0,0.,24.0,0.,24.0
1979-07-18 12:49:22.220 ,1,0,0.,24.0,0.,24.0,0.,24.0,0.,24.0
1979-07-18 12:49:46.220 ,2,1,0.,24.0,0.,24.0,0.,24.0,0.,24.0
1979-07-18 12:50:10.220 ,2,0,0.,24.0,0.,24.0,0.,24.0,0.,24.0
1979-07-18 12:50:34.220 ,3,1,1.,24.0,0.,24.0,0.,24.0,0.,24.0
1979-07-18 12:50:58.220 ,3,0,0.,24.0,1.,24.0,0.,24.0,0.,24.0
1979-07-18 12:51:22.220 ,4,1,0.,24.0,0.,24.0,0.,24.0,0.,24.0
1979-07-18 12:51:46.220 ,4,0,0.,24.0,1.,24.0,0.,24.0,0.,24.0
1979-07-18 12:52:10.220 ,5,1,0.,24.0,0.,24.0,1.,24.0,0.,24.0
1979-07-18 12:52:34.220 ,5,0,0.,24.0,1.,24.0,0.,24.0,0.,24.0
1979-07-18 12:52:58.220 ,6,1,0.,24.0,0.,24.0,0.,24.0,0.,24.0
1979-07-18 12:53:22.220 ,6,0,2.,24.0,0.,24.0,1.,24.0,0.,24.0
1979-07-18 12:53:46.220 ,7,1,9.,24.0,0.,24.0,0.,24.0,0.,24.0
1979-07-18 12:54:10.220 ,7,0,33.,24.0,0.,24.0,0.,24.0,0.,24.0
1979-07-18 12:54:34.220 ,7,1,37.,24.0,0.,24.0,1.,24.0,0.,24.0
1979-07-18 12:54:58.220 ,7,0,29.,24.0,0.,24.0,0.,24.0,0.,24.0
1979-07-18 12:55:22.220 ,6,1,19.,24.0,0.,24.0,0.,24.0,0.,24.0
1979-07-18 12:55:46.220 ,6,0,0.,24.0,0.,24.0,0.,24.0,0.,24.0
1979-07-18 12:56:10.220 ,5,1,0.,24.0,0.,24.0,0.,24.0,0.,24.0
1979-07-18 12:56:34.220 ,5,0,0.,24.0,0.,24.0,0.,24.0,0.,24.0
1979-07-18 12:56:58.220 ,4,1,0.,24.0,1.,24.0,0.,24.0,0.,24.0
1979-07-18 12:57:22.220 ,4,0,0.,24.0,0.,24.0,0.,24.0,0.,24.0
1979-07-18 12:57:46.220 ,3,1,0.,24.0,0.,24.0,0.,24.0,0.,24.0
1979-07-18 12:58:10.220 ,3,0,0.,24.0,1.,24.0,0.,24.0,0.,24.0
1979-07-18 12:58:34.220 ,2,1,1.,24.0,1.,24.0,0.,24.0,0.,24.0
1979-07-18 12:58:58.220 ,2,0,0.,24.0,0.,24.0,0.,24.0,0.,24.0
1979-07-18 12:59:22.220 ,1,1,0.,24.0,0.,24.0,0.,24.0,0.,24.0
1979-07-18 12:59:46.220 ,1,0,0.,24.0,0.,24.0,0.,24.0,0.,24.0
1979-07-18 13:00:10.220 ,0,1,0.,24.0,0.,24.0,0.,24.0,0.,24.0
1979-07-18 13:00:34.220 ,0,0,0.,24.0,0.,24.0,0.,24.0,0.,24.0
1979-07-18 13:00:58.220 ,0,1,1.,24.0,0.,24.0,0.,24.0,0.,24.0
1979-07-18 13:01:22.220 ,0,0,1.,24.0,0.,24.0,0.,24.0,0.,24.0
1979-07-18 13:01:46.220 ,1,1,1.,24.0,1.,24.0,0.,24.0,0.,24.0
1979-07-18 13:02:10.220 ,1,0,0.,24.0,1.,24.0,0.,24.0,0.,24.0
1979-07-18 13:02:34.220 ,2,1,0.,24.0,0.,24.0,0.,24.0,0.,24.0
1979-07-18 13:02:58.220 ,2,0,1.,24.0,0.,24.0,0.,24.0,0.,24.0
1979-07-18 13:03:22.220 ,3,1,0.,24.0,0.,24.0,0.,24.0,0.,24.0
1979-07-18 13:03:46.220 ,3,0,0.,24.0,0.,24.0,0.,24.0,0.,24.0
1979-07-18 13:04:10.220 ,4,1,0.,24.0,0.,24.0,0.,24.0,0.,24.0
1979-07-18 13:04:34.220 ,4,0,0.,24.0,1.,24.0,1.,24.0,0.,24.0
1979-07-18 13:05:46.220 ,0,0,1.,24.0,0.,24.0,0.,24.0,0.,24.0
1979-07-18 13:06:10.220 ,0,0,0.,24.0,0.,24.0,0.,24.0,0.,24.0
1979-07-18 13:06:34.220 ,7,0,7.,24.0,0.,24.0,1.,24.0,0.,24.0
1979-07-18 13:06:58.220 ,7,0,29.,24.0,0.,24.0,0.,24.0,0.,24.0
1979-07-18 13:07:22.220 ,5,1,20.,24.0,0.,24.0,0.,24.0,0.,24.0
1979-07-18 13:07:46.220 ,1,1,0.,24.0,0.,24.0,0.,24.0,0.,24.0
1979-07-18 13:08:10.220 ,2,1,0.,24.0,0.,24.0,0.,24.0,0.,24.0
1979-07-18 13:08:34.220 ,6,1,1.,24.0,0.,24.0,0.,24.0,0.,24.0
1979-07-18 13:08:58.220 ,5,1,23.,24.0,0.,24.0,0.,24.0,0.,24.0
1979-07-18 13:09:22.220 ,1,1,0.,24.0,0.,24.0,1.,24.0,0.,24.0
1979-07-18 13:09:46.220 ,2,1,0.,24.0,0.,24.0,0.,24.0,0.,24.0
1979-07-18 13:10:10.220 ,6,1,0.,24.0,0.,24.0,0.,24.0,0.,24.0
1979-07-18 13:10:34.220 ,5,1,8.,24.0,0.,24.0,0.,24.0,0.,24.0
1979-07-18 13:10:58.220 ,1,1,1.,24.0,0.,24.0,0.,24.0,0.,24.0
1979-07-18 13:11:22.220 ,2,1,0.,24.0,0.,24.0,0.,24.0,0.,24.0
1979-07-18 13:11:46.220 ,6,1,0.,24.0,0.,24.0,0.,24.0,0.,24.0
1979-07-18 13:12:58.220 ,0,0,1.,24.0,0.,24.0,0.,24.0,0.,24.0
1979-07-18 13:13:22.220 ,6,1,1.,24.0,0.,24.0,0.,24.0,0.,24.0
1979-07-18 13:13:46.220 ,5,1,14.,24.0,0.,24.0,1.,24.0,0.,24.0
1979-07-18 13:14:10.220 ,1,1,0.,24.0,0.,24.0,0.,24.0,0.,24.0
1979-07-18 13:14:34.220 ,2,1,0.,24.0,0.,24.0,0.,24.0,0.,24.0
1979-07-18 13:14:58.220 ,6,1,1.,24.0,0.,24.0,0.,24.0,0.,24.0
1979-07-18 13:15:22.220 ,5,1,16.,24.0,0.,24.0,0.,24.0,0.,24.0
1979-07-18 13:15:46.220 ,1,1,0.,24.0,0.,24.0,1.,24.0,0.,24.0
1979-07-18 13:16:10.220 ,2,1,0.,24.0,0.,24.0,1.,24.0,0.,24.0
1979-07-18 13:16:34.220 ,6,1,0.,24.0,0.,24.0,0.,24.0,0.,24.0
1979-07-18 13:16:58.220 ,5,1,20.,24.0,0.,24.0,0.,24.0,0.,24.0
1979-07-18 13:17:22.220 ,1,1,0.,24.0,0.,24.0,0.,24.0,0.,24.0
1979-07-18 13:17:46.220 ,0,0,0.,24.0,0.,24.0,0.,24.0,0.,24.0
1979-07-18 13:18:10.220 ,0,0,0.,24.0,0.,24.0,0.,24.0,0.,24.0
1979-07-18 13:18:34.220 ,5,1,16.,24.0,0.,24.0,0.,24.0,0.,24.0
1979-07-18 13:18:58.220 ,5,0,0.,24.0,0.,24.0,0.,24.0,0.,24.0
1979-07-18 13:19:22.220 ,4,1,0.,24.0,0.,24.0,0.,24.0,0.,24.0
1979-07-18 13:19:46.220 ,4,0,0.,24.0,0.,24.0,0.,24.0,0.,24.0
1979-07-18 13:20:10.220 ,3,1,0.,24.0,0.,24.0,0.,24.0,0.,24.0
1979-07-18 13:20:34.220 ,3,0,0.,24.0,0.,24.0,1.,24.0,0.,24.0
1979-07-18 13:20:58.220 ,2,1,0.,24.0,0.,24.0,0.,24.0,0.,24.0
1979-07-18 13:21:22.220 ,2,0,0.,24.0,2.,24.0,0.,24.0,0.,24.0
1979-07-18 13:21:46.220 ,1,1,0.,24.0,1.,24.0,1.,24.0,0.,24.0
1979-07-18 13:22:10.220 ,1,0,0.,24.0,0.,24.0,0.,24.0,0.,24.0
1979-07-18 13:22:34.220 ,0,1,0.,24.0,0.,24.0,0.,24.0,0.,24.0
1979-07-18 13:22:58.220 ,0,0,1.,24.0,0.,24.0,0.,24.0,0.,24.0
1979-07-18 13:23:22.220 ,0,1,0.,24.0,1.,24.0,0.,24.0,0.,24.0
1979-07-18 13:23:46.220 ,0,0,0.,24.0,0.,24.0,0.,24.0,0.,24.0
1979-07-18 13:24:10.220 ,1,1,0.,24.0,0.,24.0,0.,24.0,0.,24.0
1979-07-18 13:24:34.220 ,1,0,0.,24.0,1.,24.0,1.,24.0,0.,24.0
1979-07-18 13:24:58.220 ,2,1,0.,24.0,0.,24.0,0.,24.0,0.,24.0
1979-07-18 13:25:22.220 ,2,0,2.,24.0,1.,24.0,1.,24.0,0.,24.0
1979-07-18 13:25:46.220 ,3,1,1.,24.0,2.,24.0,0.,24.0,0.,24.0
1979-07-18 13:26:10.220 ,3,0,0.,24.0,0.,24.0,1.,24.0,0.,24.0
1979-07-18 13:27:22.220 ,0,0,2.,24.0,0.,24.0,0.,24.0,0.,24.0
1979-07-18 13:27:46.220 ,0,0,0.,24.0,0.,24.0,0.,24.0,0.,24.0
1979-07-18 13:28:10.220 ,6,1,0.,24.0,0.,24.0,0.,24.0,0.,24.0
1979-07-18 13:28:34.220 ,6,0,0.,24.0,0.,24.0,0.,24.0,0.,24.0
1979-07-18 13:28:58.220 ,7,1,6.,24.0,0.,24.0,0.,24.0,0.,24.0
1979-07-18 13:29:22.220 ,7,0,32.,24.0,0.,24.0,0.,24.0,0.,24.0
1979-07-18 13:29:46.220 ,7,1,33.,24.0,0.,24.0,0.,24.0,0.,24.0
1979-07-18 13:30:10.220 ,7,0,30.,24.0,0.,24.0,0.,24.0,0.,24.0
1979-07-18 13:30:34.220 ,6,1,24.,24.0,0.,24.0,0.,24.0,0.,24.0
1979-07-18 13:30:58.220 ,6,0,0.,24.0,0.,24.0,1.,24.0,0.,24.0
1979-07-18 13:31:22.220 ,5,1,0.,24.0,1.,24.0,2.,24.0,0.,24.0
1979-07-18 13:31:46.220 ,5,0,0.,24.0,0.,24.0,0.,24.0,0.,24.0
1979-07-18 13:32:10.220 ,4,1,0.,24.0,0.,24.0,0.,24.0,0.,24.0
1979-07-18 13:32:34.220 ,4,0,1.,24.0,0.,24.0,0.,24.0,0.,24.0
1979-07-18 13:32:58.220 ,3,1,0.,24.0,0.,24.0,0.,24.0,0.,24.0
1979-07-18 13:33:22.220 ,3,0,0.,24.0,0.,24.0,0.,24.0,0.,24.0
1979-07-18 13:33:46.220 ,2,1,2.,24.0,0.,24.0,0.,24.0,0.,24.0
1979-07-18 13:34:10.220 ,2,0,1.,24.0,1.,24.0,0.,24.0,0.,24.0
1979-07-18 13:34:34.220 ,1,1,0.,24.0,1.,24.0,0.,24.0,0.,24.0
1979-07-18 13:34:58.220 ,1,0,0.,24.0,1.,24.0,0.,24.0,0.,24.0
1979-07-18 13:35:22.220 ,0,1,0.,24.0,1.,24.0,0.,24.0,0.,24.0
1979-07-18 13:35:46.220 ,0,0,2.,24.0,1.,24.0,0.,24.0,0.,24.0
1979-07-18 13:36:10.220 ,0,1,0.,24.0,0.,24.0,0.,24.0,0.,24.0
1979-07-18 13:36:34.220 ,0,0,0.,24.0,0.,24.0,0.,24.0,0.,24.0
1979-07-18 13:36:58.220 ,1,1,0.,24.0,0.,24.0,0.,24.0,0.,24.0
1979-07-18 13:37:22.220 ,1,0,1.,24.0,0.,24.0,0.,24.0,0.,24.0
1979-07-18 13:37:46.220 ,2,1,0.,24.0,0.,24.0,0.,24.0,0.,24.0
1979-07-18 13:38:10.220 ,2,0,1.,24.0,0.,24.0,0.,24.0,0.,24.0
1979-07-18 13:38:34.220 ,3,1,0.,24.0,0.,24.0,0.,24.0,0.,24.0
1979-07-18 13:38:58.220 ,3,0,0.,24.0,0.,24.0,0.,24.0,0.,24.0
1979-07-18 13:39:22.220 ,4,1,0.,24.0,0.,24.0,0.,24.0,0.,24.0
1979-07-18 13:39:46.220 ,4,0,0.,24.0,1.,24.0,0.,24.0,0.,24.0
1979-07-18 13:40:10.220 ,0,0,1.,24.0,0.,24.0,0.,24.0,0.,24.0
1979-07-18 13:40:34.220 ,0,0,0.,24.0,0.,24.0,0.,24.0,0.,24.0
1979-07-18 13:41:46.220 ,0,0,7.,24.0,0.,24.0,1.,24.0,0.,24.0
1979-07-18 13:42:10.220 ,0,0,37.,24.0,0.,24.0,0.,24.0,0.,24.0
1979-07-18 13:42:34.220 ,7,1,29.,24.0,0.,24.0,0.,24.0,0.,24.0
1979-07-18 13:42:58.220 ,7,0,24.,24.0,0.,24.0,0.,24.0,0.,24.0
1979-07-18 13:43:22.220 ,6,1,26.,24.0,0.,24.0,0.,24.0,0.,24.0
1979-07-18 13:43:46.220 ,6,0,0.,24.0,0.,24.0,0.,24.0,0.,24.0
1979-07-18 13:44:10.220 ,5,1,0.,24.0,0.,24.0,0.,24.0,0.,24.0
1979-07-18 13:44:34.220 ,5,0,1.,24.0,0.,24.0,0.,24.0,0.,24.0
1979-07-18 13:44:58.220 ,4,1,1.,24.0,0.,24.0,0.,24.0,0.,24.0
1979-07-18 13:45:22.220 ,4,0,0.,24.0,0.,24.0,0.,24.0,0.,24.0
1979-07-18 13:45:46.220 ,3,1,0.,24.0,0.,24.0,0.,24.0,0.,24.0
1979-07-18 13:46:10.220 ,3,0,0.,24.0,0.,24.0,0.,24.0,0.,24.0
1979-07-18 13:46:34.220 ,2,1,1.,24.0,1.,24.0,0.,24.0,0.,24.0
1979-07-18 13:46:58.220 ,2,0,0.,24.0,0.,24.0,0.,24.0,0.,24.0
1979-07-18 13:47:22.220 ,1,1,0.,24.0,1.,24.0,0.,24.0,0.,24.0
1979-07-18 13:47:46.220 ,1,0,0.,24.0,0.,24.0,0.,24.0,0.,24.0
1979-07-18 13:48:58.220 ,0,0,1.,24.0,0.,24.0,0.,24.0,0.,24.0
1979-07-18 13:49:22.220 ,0,0,0.,24.0,0.,24.0,1.,24.0,0.,24.0
1979-07-18 13:49:46.220 ,1,1,1.,24.0,0.,24.0,0.,24.0,0.,24.0
1979-07-18 13:50:10.220 ,1,0,0.,24.0,1.,24.0,0.,24.0,0.,24.0
1979-07-18 13:50:34.220 ,2,1,1.,24.0,0.,24.0,0.,24.0,0.,24.0
1979-07-18 13:50:58.220 ,2,0,0.,24.0,0.,24.0,0.,24.0,0.,24.0
1979-07-18 13:51:22.220 ,3,1,1.,24.0,1.,24.0,0.,24.0,0.,24.0
1979-07-18 13:51:46.220 ,3,0,0.,24.0,0.,24.0,0.,24.0,0.,24.0
1979-07-18 13:52:10.220 ,4,1,0.,24.0,1.,24.0,0.,24.0,0.,24.0
1979-07-18 13:52:34.220 ,4,0,0.,24.0,0.,24.0,0.,24.0,0.,24.0
1979-07-18 13:52:58.220 ,5,1,1.,24.0,0.,24.0,0.,24.0,0.,24.0
1979-07-18 13:53:22.220 ,5,0,1.,24.0,0.,24.0,0.,24.0,0.,24.0
1979-07-18 13:53:46.220 ,6,1,1.,24.0,0.,24.0,0.,24.0,0.,24.0
1979-07-18 13:54:10.220 ,6,0,2.,24.0,0.,24.0,0.,24.0,0.,24.0
1979-07-18 13:54:34.220 ,7,0,10.,24.0,0.,24.0,0.,24.0,0.,24.0
1979-07-18 13:54:58.220 ,7,0,34.,24.0,0.,24.0,1.,24.0,0.,24.0
1979-07-18 13:55:22.220 ,5,1,14.,24.0,0.,24.0,1.,24.0,0.,24.0
1979-07-18 13:55:46.220 ,1,1,1.,24.0,0.,24.0,0.,24.0,0.,24.0
1979-07-18 13:56:10.220 ,2,1,0.,24.0,1.,24.0,0.,24.0,0.,24.0
1979-07-18 13:56:34.220 ,6,1,1.,24.0,0.,24.0,0.,24.0,0.,24.0
1979-07-18 13:56:58.220 ,5,1,15.,24.0,0.,24.0,0.,24.0,0.,24.0
1979-07-18 13:57:22.220 ,1,1,0.,24.0,0.,24.0,0.,24.0,0.,24.0
1979-07-18 13:57:46.220 ,2,1,0.,24.0,0.,24.0,0.,24.0,0.,24.0
1979-07-18 13:58:10.220 ,6,1,1.,24.0,0.,24.0,0.,24.0,0.,24.0
1979-07-18 13:58:34.220 ,5,1,14.,24.0,0.,24.0,1.,24.0,0.,24.0
1979-07-18 13:58:58.220 ,1,1,0.,24.0,0.,24.0,0.,24.0,0.,24.0
1979-07-18 13:59:22.220 ,2,1,0.,24.0,1.,24.0,1.,24.0,0.,24.0
1979-07-18 13:59:46.220 ,6,1,1.,24.0,0.,24.0,0.,24.0,0.,24.0
1979-07-18 14:00:10.220 ,5,1,12.,24.0,0.,24.0,0.,24.0,0.,24.0
1979-07-18 14:00:34.220 ,1,1,0.,24.0,0.,24.0,1.,24.0,0.,24.0
1979-07-18 14:00:58.220 ,2,1,2.,24.0,0.,24.0,0.,24.0,0.,24.0
1979-07-18 14:01:22.220 ,6,1,1.,24.0,0.,24.0,0.,24.0,0.,24.0
1979-07-18 14:01:46.220 ,5,1,17.,24.0,0.,24.0,0.,24.0,0.,24.0
1979-07-18 14:02:10.220 ,1,1,0.,24.0,0.,24.0,0.,24.0,0.,24.0
1979-07-18 14:03:22.220 ,0,0,11.,24.0,0.,24.0,0.,24.0,0.,24.0
1979-07-18 14:03:46.220 ,1,1,0.,24.0,0.,24.0,0.,24.0,0.,24.0
1979-07-18 14:04:10.220 ,2,1,1.,24.0,0.,24.0,1.,24.0,0.,24.0
1979-07-18 14:04:34.220 ,6,1,0.,24.0,0.,24.0,0.,24.0,0.,24.0
1979-07-18 14:04:58.220 ,5,1,18.,24.0,0.,24.0,0.,24.0,0.,24.0
1979-07-18 14:05:22.220 ,1,1,0.,24.0,0.,24.0,0.,24.0,0.,24.0
1979-07-18 14:05:46.220 ,0,0,0.,24.0,0.,24.0,0.,24.0,0.,24.0
1979-07-18 14:06:10.220 ,0,0,0.,24.0,0.,24.0,0.,24.0,0.,24.0
1979-07-18 14:06:34.220 ,5,1,16.,24.0,0.,24.0,0.,24.0,0.,24.0
1979-07-18 14:06:58.220 ,5,0,0.,24.0,1.,24.0,0.,24.0,0.,24.0
1979-07-18 14:07:22.220 ,4,1,0.,24.0,0.,24.0,0.,24.0,0.,24.0
1979-07-18 14:07:46.220 ,4,0,1.,24.0,1.,24.0,0.,24.0,0.,24.0
1979-07-18 14:08:10.220 ,3,1,0.,24.0,0.,24.0,0.,24.0,0.,24.0
1979-07-18 14:08:34.220 ,3,0,1.,24.0,0.,24.0,0.,24.0,0.,24.0
1979-07-18 14:08:58.220 ,2,1,0.,24.0,0.,24.0,1.,24.0,0.,24.0
1979-07-18 14:09:22.220 ,2,0,0.,24.0,0.,24.0,0.,24.0,0.,24.0
1979-07-18 14:10:45.020 ,0,0,0.,24.0,0.,24.0,0.,24.0,0.,24.0
1979-07-18 14:10:58.220 ,0,0,3.,24.0,1.,24.0,0.,24.0,0.,24.0
1979-07-18 14:11:22.220 ,0,1,0.,24.0,0.,24.0,2.,24.0,0.,24.0
1979-07-18 14:11:46.220 ,0,0,1.,24.0,0.,24.0,0.,24.0,0.,24.0
1979-07-18 14:12:10.220 ,1,1,0.,24.0,0.,24.0,0.,24.0,0.,24.0
1979-07-18 14:12:34.220 ,1,0,0.,24.0,0.,24.0,0.,24.0,0.,24.0
1979-07-18 14:12:58.220 ,2,1,1.,24.0,1.,24.0,0.,24.0,0.,24.0
1979-07-18 14:13:22.220 ,2,0,2.,24.0,1.,24.0,0.,24.0,0.,24.0
1979-07-18 14:13:46.220 ,3,1,0.,24.0,0.,24.0,0.,24.0,0.,24.0
1979-07-18 14:14:10.220 ,3,0,1.,24.0,0.,24.0,0.,24.0,0.,24.0
1979-07-18 14:14:34.220 ,4,1,0.,24.0,0.,24.0,0.,24.0,0.,24.0
1979-07-18 14:14:58.220 ,4,0,0.,24.0,0.,24.0,2.,24.0,0.,24.0
1979-07-18 14:15:22.220 ,5,1,1.,24.0,0.,24.0,0.,24.0,0.,24.0
1979-07-18 14:15:46.220 ,5,0,0.,24.0,0.,24.0,1.,24.0,0.,24.0
1979-07-18 14:16:58.220 ,0,0,7.,24.0,0.,24.0,0.,24.0,0.,24.0
1979-07-18 14:17:22.220 ,0,0,24.,24.0,0.,24.0,0.,24.0,0.,24.0
1979-07-18 14:17:46.220 ,7,1,27.,24.0,0.,24.0,0.,24.0,0.,24.0
1979-07-18 14:18:10.220 ,7,0,25.,24.0,0.,24.0,0.,24.0,0.,24.0
1979-07-18 14:18:34.220 ,6,1,13.,24.0,0.,24.0,0.,24.0,0.,24.0
1979-07-18 14:18:58.220 ,6,0,2.,24.0,0.,24.0,0.,24.0,0.,24.0
1979-07-18 14:19:22.220 ,5,1,0.,24.0,0.,24.0,0.,24.0,0.,24.0
1979-07-18 14:19:46.220 ,5,0,0.,24.0,0.,24.0,0.,24.0,0.,24.0
1979-07-18 14:20:10.220 ,4,1,0.,24.0,0.,24.0,0.,24.0,0.,24.0
1979-07-18 14:20:34.220 ,4,0,0.,24.0,1.,24.0,0.,24.0,0.,24.0
1979-07-18 14:20:58.220 ,3,1,0.,24.0,0.,24.0,0.,24.0,0.,24.0
1979-07-18 14:21:22.220 ,0,0,0.,24.0,0.,24.0,0.,24.0,0.,24.0
1979-07-18 14:21:46.220 ,2,1,0.,24.0,0.,24.0,0.,24.0,0.,24.0
1979-07-18 14:22:10.220 ,2,0,0.,24.0,0.,24.0,0.,24.0,0.,24.0
1979-07-18 14:23:22.220 ,0,0,0.,24.0,0.,24.0,0.,24.0,0.,24.0
1979-07-18 14:23:46.220 ,0,0,0.,24.0,2.,24.0,0.,24.0,0.,24.0
1979-07-18 14:24:10.220 ,0,1,0.,24.0,0.,24.0,1.,24.0,0.,24.0
1979-07-18 14:24:34.220 ,0,0,0.,24.0,0.,24.0,0.,24.0,0.,24.0
1979-07-18 14:24:58.220 ,1,1,0.,24.0,0.,24.0,0.,24.0,0.,24.0
1979-07-18 14:25:22.220 ,1,0,0.,24.0,0.,24.0,0.,24.0,0.,24.0
1979-07-18 14:25:46.220 ,2,1,0.,24.0,1.,24.0,0.,24.0,0.,24.0
1979-07-18 14:26:10.220 ,2,0,0.,24.0,0.,24.0,0.,24.0,0.,24.0
1979-07-18 14:26:34.220 ,3,1,0.,24.0,0.,24.0,0.,24.0,0.,24.0
1979-07-18 14:26:58.220 ,3,0,0.,24.0,0.,24.0,0.,24.0,0.,24.0
1979-07-18 14:27:22.220 ,4,1,0.,24.0,0.,24.0,0.,24.0,0.,24.0
1979-07-18 14:27:46.220 ,4,0,0.,24.0,0.,24.0,0.,24.0,0.,24.0
1979-07-18 14:28:10.220 ,5,1,1.,24.0,0.,24.0,0.,24.0,0.,24.0
1979-07-18 14:28:34.220 ,5,0,1.,24.0,0.,24.0,1.,24.0,0.,24.0
1979-07-18 14:28:58.220 ,6,1,0.,24.0,0.,24.0,1.,24.0,0.,24.0
1979-07-18 14:29:22.220 ,6,0,0.,24.0,1.,24.0,0.,24.0,0.,24.0
1979-07-18 14:30:34.220 ,0,0,35.,24.0,0.,24.0,0.,24.0,0.,24.0
1979-07-18 14:30:58.220 ,0,0,35.,24.0,0.,24.0,0.,24.0,0.,24.0
1979-07-18 14:31:22.220 ,6,1,28.,24.0,0.,24.0,0.,24.0,0.,24.0
1979-07-18 14:31:46.220 ,6,0,0.,24.0,0.,24.0,0.,24.0,0.,24.0
1979-07-18 14:32:10.220 ,5,1,0.,24.0,0.,24.0,0.,24.0,0.,24.0
1979-07-18 14:32:34.220 ,5,0,0.,24.0,0.,24.0,0.,24.0,0.,24.0
1979-07-18 14:32:58.220 ,4,1,0.,24.0,1.,24.0,0.,24.0,0.,24.0
1979-07-18 14:33:22.220 ,4,0,0.,24.0,0.,24.0,0.,24.0,0.,24.0
1979-07-18 14:33:46.220 ,3,1,1.,24.0,0.,24.0,0.,24.0,0.,24.0
1979-07-18 14:34:10.220 ,3,0,0.,24.0,1.,24.0,0.,24.0,0.,24.0
1979-07-18 14:34:34.220 ,2,1,0.,24.0,0.,24.0,0.,24.0,0.,24.0
1979-07-18 14:34:58.220 ,2,0,0.,24.0,0.,24.0,1.,24.0,0.,24.0
1979-07-18 14:35:22.220 ,1,1,1.,24.0,0.,24.0,2.,24.0,0.,24.0
1979-07-18 14:35:46.220 ,1,0,0.,24.0,0.,24.0,0.,24.0,0.,24.0
1979-07-18 14:36:10.220 ,0,1,0.,24.0,1.,24.0,0.,24.0,0.,24.0
1979-07-18 14:36:34.220 ,0,0,0.,24.0,0.,24.0,0.,24.0,0.,24.0
1979-07-18 14:36:58.220 ,0,1,1.,24.0,0.,24.0,0.,24.0,0.,24.0
1979-07-18 14:37:22.220 ,0,0,0.,24.0,0.,24.0,0.,24.0,0.,24.0
1979-07-18 14:37:46.220 ,1,1,0.,24.0,0.,24.0,0.,24.0,0.,24.0
1979-07-18 14:38:10.220 ,1,0,0.,24.0,0.,24.0,0.,24.0,0.,24.0
1979-07-18 14:38:34.220 ,2,1,0.,24.0,1.,24.0,0.,24.0,0.,24.0
1979-07-18 14:38:58.220 ,2,0,1.,24.0,0.,24.0,0.,24.0,0.,24.0
1979-07-18 14:39:22.220 ,3,1,0.,24.0,0.,24.0,1.,24.0,0.,24.0
1979-07-18 14:39:46.220 ,3,0,0.,24.0,0.,24.0,0.,24.0,0.,24.0
1979-07-18 14:40:10.220 ,4,1,2.,24.0,0.,24.0,0.,24.0,0.,24.0
1979-07-18 14:40:34.220 ,4,0,0.,24.0,0.,24.0,0.,24.0,0.,24.0
1979-07-18 14:40:58.220 ,5,1,1.,24.0,0.,24.0,1.,24.0,0.,24.0
1979-07-18 14:41:22.220 ,5,0,1.,24.0,0.,24.0,0.,24.0,0.,24.0
1979-07-18 14:41:46.220 ,6,1,0.,24.0,0.,24.0,0.,24.0,0.,24.0
1979-07-18 14:42:10.220 ,6,0,0.,24.0,0.,24.0,0.,24.0,0.,24.0
1979-07-18 14:42:34.220 ,7,0,5.,24.0,0.,24.0,0.,24.0,0.,24.0
1979-07-18 14:42:58.220 ,7,0,41.,24.0,0.,24.0,0.,24.0,0.,24.0
1979-07-18 14:43:22.220 ,5,1,18.,24.0,0.,24.0,0.,24.0,0.,24.0
1979-07-18 14:43:46.220 ,1,1,0.,24.0,1.,24.0,0.,24.0,0.,24.0
1979-07-18 14:44:10.220 ,2,1,1.,24.0,0.,24.0,0.,24.0,0.,24.0
1979-07-18 14:44:34.220 ,6,1,1.,24.0,0.,24.0,0.,24.0,0.,24.0
1979-07-18 14:44:58.220 ,5,1,12.,24.0,0.,24.0,0.,24.0,0.,24.0
1979-07-18 14:45:22.220 ,1,1,0.,24.0,0.,24.0,0.,24.0,0.,24.0
1979-07-18 14:45:46.220 ,2,1,0.,24.0,0.,24.0,0.,24.0,0.,24.0
1979-07-18 14:46:10.220 ,0,0,0.,24.0,0.,24.0,0.,24.0,0.,24.0
1979-07-18 14:47:00.020 ,0,0,0.,24.0,0.,24.0,0.,24.0,0.,24.0
1979-07-18 14:47:22.220 ,2,1,0.,24.0,1.,24.0,0.,24.0,0.,24.0
1979-07-18 14:47:46.220 ,6,1,0.,24.0,0.,24.0,0.,24.0,0.,24.0
1979-07-18 14:48:10.220 ,5,1,9.,24.0,0.,24.0,0.,24.0,0.,24.0
1979-07-18 14:48:34.220 ,1,1,0.,24.0,1.,24.0,0.,24.0,0.,24.0
1979-07-18 14:49:46.810 ,0,0,19.,24.0,1.,24.0,0.,24.0,0.,24.0
1979-07-18 14:50:10.210 ,1,1,0.,24.0,0.,24.0,1.,24.0,0.,24.0
1979-07-18 14:50:34.210 ,2,1,0.,24.0,0.,24.0,0.,24.0,0.,24.0
1979-07-18 14:50:58.210 ,6,1,0.,24.0,0.,24.0,0.,24.0,0.,24.0
1979-07-18 14:51:22.210 ,5,1,13.,24.0,0.,24.0,0.,24.0,0.,24.0